Location: Calvera
(42.3882°N, 0.6137°E)
Time: 18:41:27
(UTC+00:00)

ASTRO F (AKARI) - Pass Details

Date: 28 October 2020
Orbit: 397 x 523 km, 98.2° (Epoch: 22 November)

Event Time Altitude Azimuth Distance (km) Brightness Sun altitude
Rises 05:26:49 0° 11° (N) 2,537 8.3 -11.6°
Reaches altitude 10° 05:28:56 10° 10° (N) 1,631 7.3 -11.2°
Maximum altitude 05:32:25 75° 286° (WNW) 473 4.3 -10.5°
Drops below altitude 10° 05:35:43 10° 200° (SSW) 1,545 7.0 -9.9°
Sets 05:37:40 0° 198° (SSW) 2,387 8.0 -9.6°
